Preview of NWS' New Version of Forecast
This preview is not operational and should not be used for support decisions.

Regional Weather Roundup (RWR)

Issued by National Weather Service (NWS)

                            
000
ASUS43 KDTX 201710
RWRMI 
MICHIGAN HOURLY REGIONAL WEATHER ROUNDUP
NATIONAL WEATHER SERVICE DETROIT/PONTIAC MI
100 PM EDT THU JUN 20 2019

NOTE: "FAIR" INDICATES FEW OR NO CLOUDS BELOW 12,000 FEET WITH NO
SIGNIFICANT WEATHER AND/OR OBSTRUCTION TO VISIBILITY.

MIZ047>049-052>055-059>063-066>070-074>076-081>083-201800-
SOUTHEAST LOWER MICHIGAN
  
CITY           SKY/WX    TMP DP  RH WIND       PRES   REMARKS
ADRIAN         CLOUDY    63  59  87 E14       29.59R                  
ALMA           LGT RAIN  63  60  92 NE10      29.67S                  
ANN ARBOR      LGT RAIN  64  62  93 NE8       29.60R FOG              
BAD AXE        RAIN      57  56  95 N10       29.67S                  
CARO           RAIN      59  58  96 N7        29.66S                  
DETROIT CITY   CLOUDY    65  62  90 N8        29.60F FOG              
DETROIT        LGT RAIN  64  61  90 NE8       29.60S FOG              
FLINT          LGT RAIN  63  59  87 NE8G18    29.64R                  
GROSSE ILE     RAIN      62  61  96 NE10      29.59S                  
HILLSDALE      RAIN      62  61  95 N7        29.60R                  
HOWELL         LGT RAIN  62  60  92 CALM      29.63S                  

CITY           SKY/WX    TMP DP  RH WIND       PRES   REMARKS
JACKSON        LGT RAIN  63  62  97 N8        29.62R FOG              
LAMBERTVILLE   CLOUDY    64  63  97 NE7       29.57S                  
LANSING        CLOUDY    62  60  93 NE12G21   29.64S                  
LAPEER         RAIN      62  61  96 NE5       29.65R                  
MASON          CLOUDY    61  60  96 NE10G20   29.63S                  
MONROE         CLOUDY    64  64  97 NE8       29.58S FOG              
MT. CLEMENS    LGT RAIN  65  65 100 N7        29.60S FOG              
PONTIAC        CLOUDY    64  62  93 NE10      29.61R                  
PORT HOPE        N/A     54  52  93 NE13      29.67S                  
PORT HURON     CLOUDY    64  59  82 N9        29.62S                  
TRI CITIES     LGT RAIN  61  61 100 NE15      29.68S FOG              
MIDLAND        LGT RAIN  61  59  93 N6        29.68R                  
TROY           DRIZZLE   64  61  88 N6        29.63S                  
SAGINAW HB     LGT RAIN  61  59  94 N14G21    29.66F                  
$$
MIZ043>046-050>051-056>058-064>065-071>073-077>080-201800-
SOUTHWEST LOWER MICHIGAN
  
CITY           SKY/WX    TMP DP  RH WIND       PRES   REMARKS
BATTLE CREEK   CLOUDY    64  61  90 NE14G22   29.63R                  
BENTON HARBOR  CLOUDY    65  61  87 VRB6      29.66R                  
BIG RAPIDS     CLOUDY    64  60  85 N6        29.70S                  
COLDWATER      CLOUDY    64  64 100 NE13      29.61S                  
FREMONT        CLOUDY    66  58  75 NE8G17    29.69R                  
HOLLAND        CLOUDY    65  32  29 N9G18     29.68R                  
GRAND RAPIDS   CLOUDY    63  59  87 NE13      29.67R                  
IONIA          LGT RAIN  62  60  91 NE13      29.66R                  
KALAMAZOO      CLOUDY    65  60  84 NE8G17    29.63R                  
LUDINGTON      PTSUNNY   69  57  64 NE10G21   29.70S                  
MARSHALL       CLOUDY    63  63 100 NE3       29.62S                  
MOUNT PLEASANT LGT RAIN  62  61  97 N9        29.68S                  
MUSKEGON       CLOUDY    67  58  72 NE9       29.69R                  
SOUTH HAVEN    CLOUDY    65  62  90 N10       29.66R                  
$$
MIZ016>042-201800-
NORTHERN LOWER MICHIGAN
  
CITY           SKY/WX    TMP DP  RH WIND       PRES   REMARKS
ALPENA         FAIR      66  48  52 NE14G26   29.75R                  
BEAVER ISLAND  FAIR      68  45  43 NE9       29.79S                  
BELLAIRE       FAIR      72  48  42 NE13      29.75S                  
CADILLAC       FAIR      69  54  58 NE12G17   29.72S                  
CHARLEVOIX     FAIR      67  52  59 N7        29.79F                  
FRANKFORT      FAIR      67  53  59 N6        29.74S                  
GAYLORD        FAIR      64  46  52 NE14G22   29.76R                  
GRAYLING       FAIR      66  52  60 NE12      29.73R                  
HARBOR SPRINGS FAIR      70  45  40 E12G18    29.76F                  
HOUGHTON LAKE  FAIR      64  51  62 NE8       29.73R                  
MANISTEE       FAIR      70  56  61 NE8       29.72R                  
OSCODA         FAIR      62  50  64 NE16      29.71R                  
PELLSTON       FAIR      72  44  36 E12G23    29.77R                  
ROGERS CITY    FAIR      59  50  71 N3        29.77R                  
TRAVERSE CITY  CLOUDY    68  55  63 VRB6      29.73S                  
$$
MIZ007>008-015-201800-
EASTERN UPPER MICHIGAN
  
CITY           SKY/WX    TMP DP  RH WIND       PRES   REMARKS
KINROSS        FAIR      68  44  42 N10       29.78R                  
MACKINAC ISLAN FAIR      69  47  46 N5        29.77S                  
NEWBERRY       FAIR      68  39  34 E15       29.79S HAZE             
S. S. MARIE    FAIR      72  45  37 NE10      29.77R                  
MUNISING         N/A     53  46  77 N9        29.85R                  
$$
MIZ004>006-011>014-085-201800-
CENTRAL UPPER MICHIGAN
  
CITY           SKY/WX    TMP DP  RH WIND       PRES   REMARKS
MANISTIQUE     PTSUNNY   71  40  32 N9G17     29.78R                  
ESCANABA       FAIR      71  47  42 NE9       29.80R                  
MENOMINEE      FAIR      66  50  56 E14       29.80S                  
SAWYER-GWINN   SUNNY     63  46  55 NE12      29.85R                  
$$
MIZ001>003-009>011-084-201800-
WESTERN UPPER MICHIGAN
  
CITY           SKY/WX    TMP DP  RH WIND       PRES   REMARKS
IRON MOUNTAIN  FAIR      69  43  38 E12G18    29.81S                  
HOUGHTON       FAIR      69  43  38 E8        29.86R                  
COPPER HARBOR    N/A     52  46  80 NE3       29.87R                  
IRONWOOD       FAIR      64  52  64 N6        29.86S                  
$$

ABBREVIATIONS USED IN REMARKS
   TC - TEMPERATURE IN CELSIUS
  WCI - WIND CHILL INDEX
   HX - HEAT INDEX
  VSB - VISIBILITY